Regional Weather Roundup
Issued by NWS

Home | Current Version | Previous Version | Graphics & Text | Print | Product List | Glossary On
Versions: 1 2 3 4 5 6 7 8 9 10 11 12 13 14 15 16 17 18 19 20 21 22 23 24 25 26 27
000
ASUS45 KBOU 232307
RWRCO

WEATHER ROUNDUP FOR COLORADO
NATIONAL WEATHER SERVICE DENVER/BOULDER CO
500 PM MDT SUN JUL 23 2017

NOTE: "FAIR" INDICATES FEW OR NO CLOUDS BELOW 12000 FEET WITH NO
SIGNIFICANT WEATHER AND/OR OBSTRUCTIONS TO VISIBILITY.

COZ001>005-013-030-031-240000-
...NORTHWEST COLORADO...

CITY           SKY/WX    TMP DP  RH WIND       PRES   REMARKS
CRAIG          FAIR      91  22   8 CALM      30.13F
HAYDEN         FAIR      88  27  11 NW8       30.16F
MEEKER         FAIR      90  26  10 S8        30.14F
RABBIT EARS PA CLOUDY    70  34  26 CALM      30.53S
STEAMBOAT SPGS FAIR      87  29  12 CALM      30.18F
WALDEN         FAIR      77  39  25 SE13      30.32F
$$

COZ006>008-011-240000-
...WEST CENTRAL VALLEYS...

CITY           SKY/WX    TMP DP  RH WIND       PRES   REMARKS
GRAND JUNCTION FAIR      96  28   9 SW7       29.99F
MONTROSE       FAIR      81  49  32 S24G40    30.15R
EAGLE          SUNNY     90  32  12 W7        30.16F
RIFLE          FAIR      95  33  11 VRB5      30.05F
DELTA          FAIR      98  32  10 S10       30.04F
NUCLA          FAIR      82  41  23 E21       30.20R
$$

COZ017>023-064>068-240000-
...SOUTHWEST COLORADO...

CITY           SKY/WX    TMP DP  RH WIND       PRES   REMARKS
DURANGO        PTSUNNY   77  46  33 N15G25    30.21F
CORTEZ         FAIR      80  54  40 E9        30.16R
PAGOSA SPRINGS FAIR      75  42  30 NW7       30.30S
TELLURIDE      CLOUDY    61  53  73 CALM      30.48S
WOLF CREEK PAS NOT AVBL
$$

COZ009-010-012-014-032>034-037-058>063-240000-
...CENTRAL COLORADO...

CITY           SKY/WX    TMP DP  RH WIND       PRES   REMARKS
ASPEN          FAIR      83  34  17 S9        30.24F
BUENA VISTA    FAIR      76  34  21 W3        30.32S
COPPER MTN     PTSUNNY   63  36  36 SE17      30.66S
BERTHOUD PASS  FAIR      50  36  57 E15G26    30.71F
COTTONWOOD PAS FAIR      72  34  25 CALM      30.49S
GUNNISON       FAIR      79  45  29 S14       30.27S
KREMMLING      FAIR      95   5   3 CALM      30.24F
LEADVILLE      PTSUNNY   68  36  30 S18       30.47R
MONARCH PASS   PTSUNNY   59  36  41 E15G25    30.76F
SALIDA         FAIR      85  37  18 E10G16    30.35S
SUNLIGHT       FAIR      64  34  32 W3        30.56F
WILKERSON PASS PTSUNNY   46  41  81 E14G21    30.65F
$$

COZ069>075-240000-
...SAN LUIS VALLEY/SANGRE DE CRISTO MOUNTAINS...

CITY           SKY/WX    TMP DP  RH WIND       PRES   REMARKS
ALAMOSA        FAIR      75  46  35 S16       30.29S
DEL NORTE      FAIR      79  39  23 SE9       30.32S
LA VETA PASS   NOT AVBL
SAGUACHE         N/A    N/A N/A N/A MISG        N/A
$$

COZ035-036-038>040-240000-
...NORTHERN COLORADO FRONT RANGE...

CITY           SKY/WX    TMP DP  RH WIND       PRES   REMARKS
DENVER INTL AP PTSUNNY   91  44  19 SE15G21   30.13F
DMNS CITY PARK   N/A     87  44  22 S8        30.12F
AURORA         PTSUNNY   84  49  29 S9        30.16S
FRONT RANGE AP FAIR      90  43  19 E14G22    30.15F
ERIE MUNI ARPT FAIR      90  38  16 E6        30.10F
BOULDER MUN AP FAIR      91  39  16 E6        30.11S
CENTENNIAL     PTSUNNY   85  47  26 SW15G24   30.18R
BROOMFIELD     FAIR      90  39  17 SE6       30.15F
FORT COLLINS   FAIR      93  48  21 VRB7      30.10F
LONGMONT       FAIR      94  43  16 E9        30.11S
$$

COZ041-046-047-076>085-087-088-240000-
...PIKES PEAK/PALMER DIVIDE AND SOUTHERN FOOTHILLS...

CITY           SKY/WX    TMP DP  RH WIND       PRES   REMARKS
COLO. SPRINGS  PTSUNNY   83  49  30 E13       30.23S
A. F. ACADEMY  FAIR      78  46  31 W3        30.25S
SCHRIEVER AFB  FAIR      79  45  30 SE10      30.23F
CHEYENNE MTN   PTSUNNY   78  45  30 NE6       30.24S
ELLICOTT       FAIR     N/A N/A N/A S9        30.21F
FALCON           N/A     77  46  32 S12G17    30.30S
FORT CARSON    FAIR      86  49  27 E12       30.19S
LIMON          FAIR      85  47  26 E14       30.16F
MONUMENT HILL  FAIR      73  50  43 S8        30.31S
CANON CITY     SUNNY     90  48  24 NE6       30.13F
WALSENBURG     FAIR      90  43  19 NE9       30.19F
TRINIDAD       PTSUNNY   88  41  19 E10G18    30.16F
$$

COZ042>045-048>051-090-091-240000-
...NORTHEAST COLORADO...

CITY           SKY/WX    TMP DP  RH WIND       PRES   REMARKS
GREELEY ARPT   FAIR      92  50  23 VRB5      30.08F
AKRON          FAIR      90  45  21 SE15G23   30.11F
BURLINGTON     FAIR      89  52  28 SE14      30.10F
WRAY           NOT AVBL
YUMA           FAIR      88  32  13 SE8       30.08S
STERLING       FAIR      93  48  21 S9        30.04S
HOLYOKE        FAIR      95  46  18 S8        30.05F
FORT MORGAN    FAIR      92  38  15 SE12      30.08F
$$

COZ086-089-092>099-240000-
...SOUTHEAST COLORADO...

CITY           SKY/WX    TMP DP  RH WIND       PRES   REMARKS
PUEBLO         FAIR      93  47  20 S8        30.08S
LA JUNTA       FAIR      91  53  27 E14       30.07F
LAMAR          FAIR      91  57  31 E15       30.03F
SPRINGFIELD      N/A     86  59  39 E14G23    30.09S
$$




USA.gov is the U.S. government's official web portal to all federal, state and local government web resources and services.